sat.trackr.live / text

‹ back to catalog

STARLINK-36594

NORAD 67574 · 2026-016P

PAYLOAD ACTIVE UNKNOWN

§ Identity

Operator
Country
US
Launch date
2026-01-25
Launch site
AFWTR
Launch vehicle
Mass (kg)
RCS (m²)

Purposes: comms

External: N2YO · Heavens-Above · Gunter

§ Orbital elements

Epoch: 2026-05-25T03:11:06.112032Z

Period
93.91 min
Inclination
97.2853°
Eccentricity
0.0000265
Mean motion
15.33448269 rev/d
Perigee alt
465.4 km
Apogee alt
465.7 km
Semi-major
6,843.7 km
B*
3.6434e-4
RAAN
205.5319°
Arg perigee
342.4735°
Mean anomaly
17.6498°
Rev number
1,858

§ Raw data

STARLINK-365941 67574U 26016P   26145.13270963  .00011707  00000+0  36434-3 0  99912 67574  97.2853 205.5319 0000265 342.4735  17.6498 15.33448269 18583

JSON: /api/v1/satellites/67574 · /tle

For live sub-satellite position, see the globe view (requires WebGL).

§ Visibility from observer

Set your observer location to see the next 7 days of passes ≥ 10°. The values pass through the URL so the page stays shareable.

No JS? Fill the form by hand. The geolocation button needs JavaScript.